Location: *
(30.0216°S, 148.7744°W)
Time: 21:52:19
(UTC+00:00)

CORIOLIS - Visible Passes

Search period start: 18 November 2025 00:00
Search period end: 28 November 2025 00:00
Orbit: 815 x 837 km, 98.7° (Epoch: 18 November)

Date Brightness Start Highest point End Pass type
(mag) Time Alt. Az. Time Alt. Az. Time Alt. Az.
18 Nov 6.6 05:02:05 10° SSW 05:06:38 27° WSW 05:11:09 10° NW visible
19 Nov 7.3 14:20:59 10° ENE 14:24:37 19° ESE 14:28:17 10° SSE visible
20 Nov 7.8 14:03:54 10° E 14:05:47 12° ESE 14:07:39 10° SE visible
22 Nov 7.3 05:26:57 10° SSW 05:30:12 16° WSW 05:33:24 10° WNW visible
23 Nov 6.9 05:06:57 10° SSW 05:11:18 25° WSW 05:15:36 10° WNW visible
25 Nov 7.6 14:07:55 10° E 14:10:24 13° ESE 14:12:55 10° SE visible
27 Nov 7.4 05:32:00 10° SW 05:34:50 14° WSW 05:37:38 10° W visible
